TimeEDT,TemperatureF,Dew PointF,Humidity,Sea Level PressureIn,VisibilityMPH,Wind Direction,Wind SpeedMPH,Gust SpeedMPH,PrecipitationIn,Events,Conditions,WindDirDegrees,DateUTC
12:51 AM,73.9,70.0,87,29.81,7.0,Calm,Calm,-,N/A,,Mostly Cloudy,0,2013-09-02 04:51:00
1:20 AM,73.4,71.6,94,29.81,7.0,SSE,3.5,-,N/A,,Overcast,150,2013-09-02 05:20:00
1:51 AM,73.9,71.1,91,29.79,7.0,South,4.6,-,N/A,,Overcast,170,2013-09-02 05:51:00
2:51 AM,73.9,71.1,91,29.78,7.0,South,8.1,-,N/A,,Overcast,170,2013-09-02 06:51:00
3:51 AM,73.0,70.0,90,29.77,8.0,SSE,4.6,-,N/A,,Overcast,150,2013-09-02 07:51:00
4:51 AM,73.0,69.1,87,29.77,8.0,SSW,3.5,-,N/A,,Overcast,200,2013-09-02 08:51:00
5:51 AM,73.0,69.1,87,29.80,8.0,Calm,Calm,-,N/A,,Overcast,0,2013-09-02 09:51:00
6:19 AM,71.6,69.8,94,29.81,1.5,WNW,6.9,-,0.04,Rain,Heavy Rain,290,2013-09-02 10:19:00
6:34 AM,69.8,66.2,88,29.79,4.0,NNE,3.5,-,0.29,Rain,Light Rain,20,2013-09-02 10:34:00
6:51 AM,70.0,66.9,90,29.79,7.0,ESE,4.6,-,0.29,,Overcast,120,2013-09-02 10:51:00
7:38 AM,69.8,68.0,94,29.78,10.0,ESE,4.6,-,N/A,,Overcast,120,2013-09-02 11:38:00
7:51 AM,71.1,68.0,90,29.79,10.0,SE,5.8,-,N/A,,Overcast,130,2013-09-02 11:51:00
8:51 AM,72.0,68.0,87,29.79,10.0,SSE,4.6,-,N/A,,Overcast,150,2013-09-02 12:51:00
9:51 AM,73.9,68.0,82,29.79,10.0,SSW,3.5,-,N/A,,Overcast,200,2013-09-02 13:51:00
10:51 AM,75.0,69.1,82,29.79,10.0,South,3.5,-,N/A,,Overcast,180,2013-09-02 14:51:00
11:04 AM,75.2,69.8,83,29.79,10.0,South,6.9,-,N/A,,Overcast,180,2013-09-02 15:04:00
11:20 AM,75.2,69.8,83,29.78,10.0,SSW,6.9,-,N/A,,Overcast,200,2013-09-02 15:20:00
11:51 AM,75.9,70.0,82,29.78,9.0,SSW,4.6,-,N/A,,Overcast,200,2013-09-02 15:51:00
12:51 PM,80.1,70.0,71,29.75,10.0,SSE,8.1,-,0.00,,Overcast,160,2013-09-02 16:51:00
1:29 PM,78.8,71.6,78,29.74,10.0,South,8.1,-,0.00,Rain,Light Rain,180,2013-09-02 17:29:00
1:51 PM,78.1,71.1,79,29.74,10.0,Variable,4.6,-,0.00,Rain,Light Rain,0,2013-09-02 17:51:00
2:16 PM,80.6,69.8,70,29.74,10.0,SSW,9.2,-,0.00,,Mostly Cloudy,210,2013-09-02 18:16:00
2:51 PM,80.1,69.1,69,29.73,10.0,South,9.2,-,0.00,,Mostly Cloudy,180,2013-09-02 18:51:00
3:51 PM,80.1,70.0,71,29.71,10.0,SSE,8.1,-,N/A,,Mostly Cloudy,160,2013-09-02 19:51:00
4:51 PM,79.0,71.1,77,29.70,10.0,South,9.2,-,N/A,,Mostly Cloudy,170,2013-09-02 20:51:00
5:51 PM,80.1,68.0,67,29.66,10.0,SSE,9.2,-,N/A,,Scattered Clouds,160,2013-09-02 21:51:00
6:51 PM,75.9,66.9,74,29.71,10.0,South,8.1,-,N/A,,Scattered Clouds,180,2013-09-02 22:51:00
7:51 PM,75.0,68.0,79,29.70,10.0,South,9.2,-,N/A,,Mostly Cloudy,180,2013-09-02 23:51:00
8:02 PM,75.2,68.0,78,29.70,10.0,South,11.5,-,N/A,Thunderstorm,Thunderstorm,180,2013-09-03 00:02:00
8:25 PM,69.8,62.6,78,29.75,3.0,NW,11.5,24.2,0.07,Rain-Thunderstorm,Thunderstorms and Rain,310,2013-09-03 00:25:00
8:51 PM,68.0,64.9,90,29.75,5.0,Calm,Calm,-,0.24,Rain-Thunderstorm,Light Thunderstorms and Rain,0,2013-09-03 00:51:00
9:41 PM,66.2,64.4,94,29.73,9.0,South,9.2,-,0.06,Rain,Light Rain,170,2013-09-03 01:41:00
9:51 PM,66.9,64.9,93,29.73,9.0,Variable,4.6,-,0.06,Rain,Light Rain,0,2013-09-03 01:51:00
10:31 PM,66.2,64.4,94,29.73,10.0,Calm,Calm,-,0.01,,Overcast,0,2013-09-03 02:31:00
10:51 PM,66.9,64.9,93,29.73,10.0,Calm,Calm,-,0.01,,Overcast,0,2013-09-03 02:51:00
11:51 PM,66.9,64.0,90,29.75,10.0,SSW,5.8,-,N/A,,Overcast,200,2013-09-03 03:51:00